IK2CHZ-3 Weather Reports


Display with metric or nautical units.
time (UTC)temp
F
wind
direction
speed
MPH
gust
MPH
rain 1hr
in
rain 24hr
in
rain mn
in
humidity
%
barometer
mb
20260504160104 74 308 2.0 3.0 0.00 0.00 0.00 38 1015.3
20260504150605 74 319 2.0 7.0 0.00 0.00 0.00 38 1015.6
20260504141105 73 295 2.0 3.0 0.00 0.00 0.00 36 1016.1
20260504130505 71 268 3.0 7.0 0.00 0.00 0.00 42 1016.7
20260504110404 73 290 5.0 9.0 0.00 0.00 0.00 37 1017.2
20260504081905 70 301 2.0 3.0 0.00 0.00 0.00 40 1017.9
20260504080804 69 300 3.0 3.0 0.00 0.00 0.00 41 1017.8
20260504070203 66 302 2.0 5.0 0.00 0.00 0.00 47 1017.3
20260503194005 70 269 1.0 3.0 0.00 0.00 0.00 39 1016.5
20260503192904 70 276 2.0 3.0 0.00 0.00 0.00 39 1016.4
20260503191803 71 269 2.0 3.0 0.00 0.00 0.00 39 1016.3
20260503190704 71 270 2.0 3.0 0.00 0.00 0.00 38 1016.2
20260503185605 71 287 2.0 9.0 0.00 0.00 0.00 39 1016.2
20260503184504 73 315 0.0 0.0 0.00 0.00 0.00 40 1015.8
20260503183405 73 315 0.0 0.0 0.00 0.00 0.00 39 1015.8
20260503182305 73 315 0.0 0.0 0.00 0.00 0.00 37 1015.9
20260503181205 74 315 0.0 0.0 0.00 0.00 0.00 38 1015.9
20260503180103 74 315 0.0 0.0 0.00 0.00 0.00 38 1015.9
20260503175004 74 315 0.0 0.0 0.00 0.00 0.00 38 1015.7
20260503173904 74 315 0.0 0.0 0.00 0.00 0.00 37 1015.7
20260503172804 75 315 1.0 2.0 0.00 0.00 0.00 37 1015.7
20260503171705 75 315 0.0 1.0 0.00 0.00 0.00 36 1015.7
20260503170604 75 319 1.0 2.0 0.00 0.00 0.00 35 1015.8